STARLINK-11564, 62913

Orbit data source: Space-Track

STARLINK-11564, 62913 is a payload satellite owned by SpaceX/Seattle (US) in LEO that was launched on Sat, 08 Feb 2025 UTC via an FALCON 9 launch vehicle from the Air Force Eastern Test Range (AFETR). Payload-class satellites include a variety of spacecraft equipped with specific instruments for various scientific and technological missions. These include communications satellites like Starlink; space stations such as the ISS; scientific satellites like the Hubble; Earth observation satellites from companies like Planet Labs, Umbra, and HawkEye 360; GPS; miniature CubeSats for education and research; and military/defense satellites.

Loading next visibility...
Identifier
62913, 2025-027G
Orbit
LEO
Last TLE update
9 hours ago
Origin
Manufacturer
SpaceX/Seattle
Mission
Operational Commercial Communications
Bus & Motor
STARLINK V2M, Unknown motor
Mass
730 kg wet, ~700 kg dry
Launch date (UTC)
2025-02-08 (5 months ago)
Launch vehicle
FALCON 9
Launch site
Air Force Eastern Test Range (AFETR)
Object type
Payload
Rocket body
Debris
Shape & HBR
Box + 2 Pan, 29 m
Radar Cross Section
36.964 m², Large (>1 m²)

Expand to show TLE details & history

TLE from 9 hours ago
0 STARLINK-11564
1 62913U 25027G   25181.73249653  .00269654  00000-0  20251-2 0  9997
2 62913  43.0005  66.5731 0002082 256.0468 104.0169 15.70985717 23507
Epoch: 2025-06-30T17:34Z
TLE epoch observation values (Epoch: 2025-06-30T17:34:47.7Z)
Latitude
0.00005°
Longitude
-116.16368°
Altitude
356.19 km
Speed
7.697 km/s
True Right ascension
04h 26m 17s
True Declination
0° 00' 00"
Sunlit
Object was in daylight at epoch
Visualization orbit readout
Latitude
-43.01917°
Longitude
157.33376°
Altitude
367.446 km
Speed
7.69 km/s
Apparent Right ascension
00h 19m 22s
Apparent Declination
-44° 06' 25"
Sunlit
Object is in full shadow
Visualization observer readout
Local Sidereal Time
13:59:20
Azimuth
110.962° ESE
Elevation
-71.042°
Doppler factor
1
Orbital elements
Apogee altitude
359.463 km
Perigee altitude
356.658 km
Semi-major axis
6,736.197 km
Eccentricity
0.00021
Inclination
43.0005°
RAAN
66.5731°
Arg. of periapsis
256.0468°
True anomaly
Unknown
Mean anomaly
104.0169°
Eccentric anomaly
Unknown
Mean motion
3.92573 °/min
Orbital period
91.7 mins
BSTAR
0.0020251
Loading maneuver chart data...
Loading SW <> Apogee altitude chart data...
Loading historical data...
Loading historical data...
Loading historical data...
Loading historical data...
Loading historical data...
Loading historical data...
Loading historical data...

STARLINK-11564 Visibility forecast

Observer location: undefined°, undefined°

Span
Click to sort rows by Start time (UTC) header in descending order
Start Az.
Max El. time (UTC)
Max El. Az.
Max El.
End time (UTC)
End Az.
5 mins2025-07-01 19:44:13.548Z222.304° SW2025-07-01 19:46:13.548Z171.504° S32.588°2025-07-01 19:49:13.548Z81.954° E
4 mins2025-07-01 21:21:13.548Z284.504° WNW2025-07-01 21:22:13.548Z322.175° NNW37.024°2025-07-01 21:25:13.548Z67.9° E
4 mins2025-07-01 22:57:13.548Z300.757° NW2025-07-01 22:59:13.548Z36.11° NE34.986°2025-07-01 23:01:13.548Z81.699° E
4 mins2025-07-02 00:33:13.548Z274.247° WNW2025-07-02 00:35:13.548Z179.023° S37.043°2025-07-02 00:37:13.548Z129.611° SE
|